Lapse_Rate
6.9 6.9 6.5 6.7 6.6 7.2 5.9 6.1 6.5 6.3 5.8 5.6 5.6 5.1 5.4 5.2 5.3 5.4 5.5 5.5 5.3 5.5 5.6 5.4 5.2 5.2 5.4 5.5 5.8 5.8 5.7 5.7 5.6 5.7 5.6 5.5 5.6 5.5 5.6 5.9 5.9 5.9 5.9 6.1 6.1 5.9 6.1 6.3 6.3
7.0 6.8 6.5 6.3 8.1 8.2 7.4 6.9 6.8 6.3 5.8 5.7 5.8 5.5 5.3 5.7 6.1 6.1 5.9 5.8 5.7 5.5 5.4 5.4 5.3 5.3 5.4 5.3 5.5 5.5 5.6 5.8 5.8 5.9 5.7 5.7 5.7 5.7 5.8 6.0 5.9 5.8 6.0 6.1 6.0 5.9 6.1 6.3 6.3
7.0 6.6 6.4 7.0 7.8 8.3 7.4 6.8 6.3 6.0 6.5 6.0 6.0 6.0 5.3 6.2 6.1 6.1 5.9 6.0 5.8 5.5 5.5 5.6 5.5 5.4 5.5 5.6 5.6 5.7 5.9 6.0 6.1 6.0 6.0 6.0 6.0 6.0 6.1 6.0 6.0 6.0 6.0 5.9 5.9 6.1 6.2 6.4 6.4
7.1 6.8 7.0 7.9 7.7 7.0 6.8 6.6 6.2 6.1 6.5 6.8 6.3 6.3 6.2 6.0 6.2 6.3 6.0 5.9 5.6 5.5 5.6 5.6 5.6 5.5 5.4 5.5 5.7 6.0 6.1 6.3 6.3 6.2 6.3 6.4 6.3 6.3 6.3 6.3 6.2 6.3 6.1 6.1 6.2 6.2 6.3 6.3 6.3
7.7 7.2 8.3 8.0 7.5 7.1 6.6 6.3 6.3 6.4 6.2 6.9 6.1 6.5 6.5 6.2 6.1 6.2 6.1 5.9 5.7 5.6 5.6 5.6 5.6 5.6 5.6 5.7 5.9 6.2 6.4 6.5 6.5 6.5 6.6 6.5 6.6 6.4 6.3 6.2 6.3 6.2 6.2 6.2 6.2 6.3 6.3 6.5 6.2
7.7 8.0 9.3 9.1 7.5 7.0 6.7 6.2 6.2 6.3 6.3 6.7 6.5 6.7 6.7 6.6 6.3 6.2 6.0 6.0 5.8 5.7 5.6 5.6 5.7 5.8 5.9 6.1 6.3 6.4 6.4 6.4 6.5 6.5 6.4 6.5 6.4 6.4 6.2 6.1 6.1 6.1 6.2 6.3 6.4 6.3 6.3 6.5 6.4
8.2 9.1 9.4 9.3 7.7 7.1 6.8 6.5 6.4 6.2 6.6 6.7 6.6 6.7 6.9 6.7 6.4 6.2 6.1 6.1 6.0 5.8 5.9 5.9 5.8 6.0 6.2 6.4 6.3 6.2 6.3 6.4 6.4 6.4 6.4 6.2 6.2 6.1 6.1 6.1 6.2 6.2 6.2 6.3 6.4 6.3 6.3 6.3 6.3
8.4 8.9 9.1 9.2 9.2 7.8 6.9 6.6 6.4 6.4 6.1 7.0 6.4 6.8 6.9 7.1 6.8 6.4 6.3 6.4 6.3 6.1 6.0 6.0 6.1 6.2 6.3 6.2 6.2 6.3 6.4 6.4 6.5 6.4 6.2 6.1 6.1 6.0 6.0 6.0 6.0 6.2 6.1 6.2 6.3 6.4 6.4 6.3 6.4
8.4 9.2 9.4 9.3 9.2 7.7 7.1 6.8 6.9 6.6 6.9 7.0 6.7 6.6 6.7 7.0 7.1 6.9 6.7 6.6 6.5 6.3 6.1 6.2 6.2 6.3 6.2 6.3 6.3 6.4 6.4 6.3 6.2 6.0 6.0 5.9 5.8 5.9 5.9 5.9 5.9 5.9 6.1 6.1 6.2 6.2 6.2 6.2 6.1
8.0 9.1 9.4 8.7 8.9 7.7 7.4 6.9 7.5 7.2 6.9 6.5 6.9 7.0 6.8 6.9 7.4 7.3 7.0 6.8 6.5 6.3 6.1 6.2 6.2 6.2 6.2 6.3 6.3 6.3 6.2 6.1 6.0 5.9 5.8 5.7 5.7 5.8 5.8 5.8 5.8 5.9 5.9 5.8 5.8 5.9 5.8 5.8 5.8
8.3 9.0 8.9 8.4 8.0 7.9 7.4 7.1 7.1 6.8 6.6 6.5 7.2 7.1 7.1 6.9 7.2 7.3 7.0 6.8 6.7 6.5 6.3 6.3 6.3 6.3 6.2 6.3 6.2 6.2 6.1 5.9 5.8 5.7 5.6 5.6 5.6 5.7 5.7 5.7 5.7 5.7 5.7 5.7 5.7 5.7 5.9 5.9 5.9
8.2 8.5 8.4 8.4 7.8 7.7 7.5 7.2 7.3 7.5 6.9 6.8 7.2 7.2 7.1 7.1 7.2 7.4 7.1 7.0 7.0 6.8 6.6 6.4 6.2 6.3 6.2 6.2 6.1 6.0 5.9 5.8 5.6 5.5 5.5 5.6 5.6 5.7 5.7 5.7 5.6 5.6 5.6 5.5 5.5 5.5 5.5 5.5 5.6
8.2 8.5 8.6 8.3 7.7 7.7 7.5 7.3 7.2 7.6 7.6 7.3 7.6 7.5 7.3 7.1 7.2 7.0 6.9 6.7 6.6 6.5 6.5 6.3 6.3 6.3 6.2 6.2 6.1 5.9 5.9 5.7 5.7 5.7 5.6 5.6 5.6 5.7 5.7 5.7 5.6 5.7 5.8 5.7 5.5 5.5 5.6 5.6 5.4
8.7 8.4 8.5 8.2 7.8 7.5 7.4 7.3 7.6 7.6 7.8 7.6 7.6 7.5 7.5 7.3 7.3 7.3 7.3 7.2 6.9 6.7 6.5 6.3 6.3 6.3 6.2 6.1 6.0 5.9 5.8 5.7 5.7 5.6 5.5 5.6 5.5 5.7 5.6 5.6 5.6 5.7 5.8 5.8 5.7 5.7 5.6 5.5 5.6
8.5 8.3 8.2 8.1 7.9 7.8 7.6 7.4 7.7 7.4 7.7 7.7 7.6 7.6 7.6 7.5 7.3 7.4 7.3 7.3 7.0 6.7 6.5 6.3 6.3 6.2 6.1 6.0 6.0 5.9 5.8 5.8 5.8 5.6 5.6 5.5 5.5 5.6 5.6 5.7 5.6 5.7 5.8 5.9 5.8 5.8 5.8 5.8 5.9
8.3 8.4 9.0 8.0 7.9 7.9 7.7 8.9 7.5 7.5 7.5 7.5 7.6 7.5 7.6 7.6 7.6 7.4 7.3 7.1 6.8 6.7 6.6 6.5 6.4 6.3 6.1 6.1 6.0 6.0 5.9 5.9 6.0 5.8 5.9 5.7 5.6 5.6 5.7 5.7 5.7 5.7 5.7 5.8 5.9 5.7 5.9 6.2 6.2
8.5 9.2 9.5 8.3 7.8 8.1 7.7 9.0 7.8 7.8 7.7 7.4 7.4 7.5 7.4 7.6 7.6 7.5 7.4 7.2 7.0 6.8 6.6 6.5 6.4 6.2 6.1 5.9 6.0 5.9 5.9 6.0 6.1 6.1 6.1 6.0 5.8 5.7 5.8 5.7 5.9 5.9 5.8 5.9 6.0 5.8 6.2 6.2 6.2
9.5 9.1 9.5 9.5 8.2 8.0 7.9 8.6 7.7 7.2 7.2 7.3 7.4 7.2 7.5 7.5 7.5 7.4 7.4 7.3 7.1 7.1 6.9 6.6 6.4 6.2 6.2 6.4 6.3 6.2 6.1 6.1 6.0 6.0 6.1 5.9 5.9 5.9 5.9 6.0 6.0 6.0 6.1 6.1 6.1 6.3 6.3 6.4 6.3
9.6 9.5 9.5 9.5 9.0 8.5 8.7 8.5 8.2 7.6 7.2 7.0 6.8 7.2 7.2 7.5 7.4 7.3 7.3 7.3 7.2 7.2 7.2 7.0 6.8 6.6 6.3 6.3 6.0 6.0 6.0 6.0 5.9 5.9 6.1 6.0 5.9 5.7 5.8 6.0 6.0 6.0 5.9 6.3 6.3 6.3 6.4 6.4 6.5
9.3 9.5 9.5 9.5 8.9 8.7 9.1 8.7 8.4 7.8 7.8 7.0 6.9 6.9 7.4 7.1 7.2 7.2 7.1 7.1 7.1 7.1 7.1 7.0 6.8 6.5 6.3 6.1 6.1 6.2 6.1 6.2 6.2 6.2 6.1 6.0 5.9 6.1 6.2 6.2 6.2 6.3 6.4 6.3 6.3 6.2 6.2 6.4 6.4
8.7 9.4 9.5 9.4 8.8 8.7 9.2 8.9 8.7 8.4 7.7 7.9 7.7 7.2 7.2 7.5 7.2 7.2 7.1 7.1 6.9 6.9 6.9 6.8 6.8 6.6 6.5 6.2 6.3 6.3 6.2 6.2 6.1 6.2 6.3 6.4 6.4 6.4 6.4 6.4 6.5 6.5 6.3 6.4 6.3 6.2 6.1 6.0 6.0
8.6 8.8 9.5 9.4 9.2 9.2 8.9 9.5 9.4 9.2 8.0 7.6 8.5 8.3 8.0 7.7 7.8 7.4 7.2 7.1 7.1 7.0 6.8 6.9 6.9 6.9 6.6 6.6 6.5 6.4 6.3 6.3 6.3 6.4 6.4 6.5 6.6 6.6 6.7 6.6 6.6 6.6 6.6 6.6 6.5 6.3 6.0 5.9 5.8
8.2 9.3 9.0 9.4 9.4 9.3 9.2 9.3 9.4 9.0 8.8 8.3 9.0 8.9 8.7 8.9 8.7 8.2 7.7 7.5 7.3 7.0 6.9 7.0 7.0 7.1 6.9 6.7 6.6 6.4 6.4 6.3 6.4 6.5 6.6 6.5 6.6 6.7 6.6 6.6 6.6 6.6 6.7 6.7 6.6 6.3 5.9 5.8 5.8
8.2 9.2 9.3 9.3 9.4 9.7 9.4 9.4 9.4 9.5 8.7 9.1 8.9 8.4 9.1 8.8 8.9 8.7 8.3 7.8 7.5 7.2 7.1 7.3 7.4 7.3 7.2 6.9 6.6 6.5 6.4 6.5 6.6 6.7 6.8 6.7 6.6 6.6 6.6 6.5 6.6 6.6 6.6 6.6 6.7 6.4 6.1 5.8 5.7
8.1 8.8 9.2 9.6 9.8 9.9 9.4 9.4 8.9 9.6 9.3 9.1 9.5 9.0 8.7 8.9 8.9 8.8 8.8 8.4 8.0 7.7 7.6 7.4 7.3 7.4 7.3 7.2 6.9 6.6 6.6 6.7 6.7 6.7 6.8 6.9 6.7 6.8 6.8 6.8 6.6 6.7 6.6 6.6 6.7 6.6 6.4 6.0 5.8
7.8 8.4 9.5 9.5 9.8 10.0 9.5 9.4 8.8 8.6 9.0 9.2 9.3 9.1 8.6 9.1 8.6 8.5 8.6 8.7 8.3 8.2 7.9 7.8 7.6 7.6 7.5 7.3 7.1 7.0 6.8 6.9 7.0 7.0 7.1 7.1 7.1 7.1 7.0 7.0 6.7 6.6 6.6 6.8 6.8 6.8 6.5 6.1 5.9
8.3 8.3 9.1 9.6 9.6 9.8 9.7 9.1 8.8 8.9 8.9 9.1 9.2 9.4 9.3 9.2 9.2 9.1 8.6 8.4 8.5 8.3 8.2 8.1 7.9 7.8 7.7 7.6 7.4 7.2 7.1 7.0 7.0 7.1 7.1 7.1 7.2 7.1 7.0 6.9 6.5 6.7 6.6 6.4 6.5 6.5 6.5 6.3 6.1
8.9 8.3 9.0 9.5 9.8 9.5 9.7 9.7 9.5 8.9 9.2 9.5 9.5 9.6 9.7 9.5 9.3 9.1 8.9 8.6 8.6 8.4 8.1 7.9 7.9 8.0 8.0 7.7 7.6 7.4 7.4 7.4 7.2 7.3 7.5 7.3 7.3 7.0 7.1 6.7 7.0 6.6 6.5 6.4 6.4 6.6 6.5 6.3 6.3
8.5 9.3 9.0 9.5 9.6 10.0 9.9 9.8 9.6 8.7 9.1 9.5 9.7 9.5 9.6 9.6 9.6 9.3 9.0 9.0 8.5 8.4 8.2 8.1 7.8 7.9 7.9 8.0 7.9 7.9 7.8 7.5 7.5 7.3 7.6 7.4 7.2 6.9 6.3 6.6 6.9 6.7 6.8 6.6 6.3 6.3 6.3 6.4 6.1
9.4 9.2 9.4 9.4 9.2 9.5 9.6 9.7 9.7 9.6 8.7 9.1 9.6 9.7 9.7 9.5 9.5 9.5 9.1 9.0 8.9 8.5 8.1 7.9 7.8 7.9 8.1 8.0 8.0 8.0 7.9 7.8 7.7 7.1 7.5 7.3 6.6 6.9 6.7 6.5 6.1 6.2 6.2 6.3 6.4 6.4 6.3 6.4 6.2
Wind_Speed
16 17 6 7 6 4 12 8 8 8 8 10 7 5 10 9 3 7 12 14 16 12 14 14 10 12 15 14 15 16 17 16 14 14 12 12 12 13 13 12 11 11 11 11 10 10 11 11 10
14 10 5 6 3 5 8 8 10 10 13 13 12 7 6 5 8 16 15 15 13 14 16 15 8 10 13 13 14 15 15 14 13 11 10 9 9 9 11 10 10 9 10 8 9 9 10 8 8
12 11 6 4 4 8 10 8 11 12 11 4 5 10 5 9 14 16 19 17 15 12 12 13 7 10 13 12 13 14 14 13 11 10 9 8 7 8 8 8 9 9 8 8 8 8 7 7 7
7 5 5 2 12 7 10 10 12 11 8 3 9 12 11 13 11 12 18 15 14 13 11 12 8 10 12 13 13 14 13 12 11 11 9 7 7 6 7 7 8 7 6 5 5 4 5 6 6
6 4 3 9 11 9 9 11 9 6 6 8 10 11 13 7 10 18 16 14 13 13 13 14 11 12 14 14 14 14 13 11 11 10 9 8 6 5 5 6 5 5 3 3 3 4 5 6 6
7 4 3 10 11 8 8 10 7 4 8 7 13 16 11 12 16 15 15 12 13 14 14 15 11 12 14 14 14 14 13 11 10 10 9 7 4 3 4 3 2 2 2 2 3 5 6 5 6
8 6 5 9 10 8 9 9 5 7 10 9 17 14 12 15 15 15 15 14 13 15 11 13 15 13 13 13 13 13 12 10 10 9 8 6 4 3 3 1 1 2 3 6 6 5 5 5 5
5 6 4 2 6 12 11 11 7 8 8 14 10 6 14 18 18 16 15 13 12 12 13 11 10 13 14 14 12 11 10 10 8 8 6 5 5 2 4 6 2 3 5 6 7 4 4 5 5
4 6 4 5 4 11 14 10 7 7 12 8 10 7 20 21 19 17 16 13 12 10 11 13 13 14 13 13 12 11 9 8 8 9 7 8 5 3 2 7 5 5 3 5 3 4 4 2 5
8 7 5 4 1 12 15 11 13 9 13 10 11 8 21 21 19 19 18 16 15 14 12 11 12 13 12 12 12 11 11 12 11 10 8 6 1 2 5 2 3 2 3 2 4 2 3 8 6
8 11 6 1 2 12 17 12 12 10 12 12 16 16 23 22 20 19 18 16 16 15 12 12 10 11 12 8 11 9 10 9 11 9 7 5 4 2 3 0 2 2 4 4 4 2 3 5 6
10 10 9 4 7 11 17 15 12 10 4 13 14 19 24 23 21 19 18 16 15 15 13 13 12 11 11 9 10 9 9 9 8 10 9 7 8 5 3 2 1 2 2 2 2 3 4 5 6
12 11 8 8 8 12 14 14 10 12 9 11 15 20 24 22 21 19 18 16 15 15 14 13 12 10 11 10 9 9 8 10 10 8 10 10 8 2 4 2 4 5 2 1 4 4 5 5 6
4 8 8 9 11 12 14 10 11 12 13 12 18 22 23 23 22 19 18 17 16 15 15 14 14 13 14 10 10 9 10 10 10 10 10 11 10 4 6 4 4 4 3 3 3 4 6 6 7
8 11 5 9 13 10 13 11 14 12 13 13 18 19 21 22 21 21 19 18 17 15 16 15 14 15 13 12 12 12 10 12 10 11 10 11 10 6 8 5 5 7 2 4 5 4 4 5 6
14 14 12 11 15 9 15 12 17 15 16 15 17 18 20 22 22 20 20 19 18 17 16 15 13 15 14 12 12 12 13 12 12 11 9 10 10 10 9 5 5 5 6 7 5 5 5 5 5
15 14 13 12 14 7 16 7 16 15 16 15 15 18 19 19 21 20 20 19 18 17 16 17 16 15 15 13 12 13 13 10 6 10 12 12 12 11 10 8 8 7 7 5 6 5 4 6 5
18 17 11 14 15 13 17 10 5 13 17 16 17 17 19 20 23 21 20 18 18 17 16 16 14 15 14 9 9 8 8 10 13 11 10 11 9 11 8 8 8 6 5 6 3 4 5 5 5
17 15 13 16 14 17 15 13 10 11 14 16 17 18 19 20 20 19 19 19 18 17 17 16 16 15 11 10 10 10 10 8 7 11 9 9 9 8 6 7 8 7 5 3 3 6 5 6 1
20 18 17 14 8 15 12 14 12 13 16 17 19 19 19 19 19 20 20 20 20 19 17 17 16 16 14 11 9 8 6 9 8 9 9 10 10 10 9 7 5 2 3 2 4 4 6 3 2
22 21 18 16 11 15 10 14 14 16 15 16 17 20 21 21 21 21 22 21 20 19 19 17 17 16 15 15 9 8 7 6 6 7 7 9 10 9 8 6 3 3 4 3 2 3 3 5 2
23 22 19 16 12 13 16 12 14 15 16 17 20 21 21 22 21 20 22 21 21 20 18 18 17 17 16 15 12 13 10 9 8 6 5 4 6 7 7 7 5 4 3 1 3 2 4 4 3
24 21 20 20 15 18 15 10 13 5 14 19 23 24 24 24 23 22 22 22 21 19 18 17 17 16 16 15 15 11 12 9 8 6 4 5 5 9 10 9 8 4 5 4 1 2 3 2 4
19 16 12 17 15 18 24 15 15 13 15 16 16 23 25 24 23 22 21 21 21 20 19 18 17 16 16 16 16 15 12 12 8 8 6 7 7 8 10 11 8 6 4 4 4 3 3 4 4
22 17 11 15 15 15 18 20 16 12 12 16 16 18 23 24 23 23 23 22 22 22 21 18 18 17 17 17 17 17 16 15 13 11 9 8 7 6 9 8 7 6 6 4 4 4 2 3 4
26 25 16 23 15 14 21 16 18 19 18 21 14 13 20 24 24 25 25 24 23 23 22 21 19 18 18 18 17 15 16 12 12 12 9 8 7 6 6 9 8 8 8 7 7 6 6 5 5
28 25 26 25 20 16 17 14 22 17 15 16 14 13 17 23 26 27 26 25 23 23 22 21 19 19 19 18 16 16 15 16 12 11 11 8 7 5 7 9 8 8 8 8 7 7 6 5 7
29 21 24 20 26 23 20 18 11 18 19 17 14 16 18 20 24 26 26 27 24 24 23 23 21 20 19 19 17 15 16 15 14 12 11 12 8 7 7 8 8 9 7 8 9 8 8 7 7
20 23 21 23 21 19 18 19 16 16 15 15 12 14 15 18 22 24 26 26 24 23 23 22 20 20 20 19 18 17 16 16 15 13 11 9 9 10 7 7 8 9 9 10 10 10 8 7 8
26 25 26 17 27 20 22 18 12 13 17 21 21 15 10 13 19 22 23 24 24 25 23 22 21 20 20 19 17 17 16 16 16 14 13 13 9 12 10 6 6 9 9 10 12 12 10 9 10
Wind_Direction
162 173 187 209 237 134 138 185 122 130 121 69 59 83 76 35 83 76 135 133 132 133 126 131 119 117 123 124 116 122 121 118 114 108 104 98 91 83 82 83 83 83 80 75 73 62 55 51 45
165 175 225 272 261 107 83 121 103 78 106 118 92 132 100 83 56 117 133 135 144 128 133 129 106 113 123 128 120 122 126 124 118 118 109 103 95 89 86 84 84 82 76 74 68 57 49 43 36
178 212 266 295 20 49 100 109 100 114 131 105 107 60 77 100 131 135 125 142 145 131 125 107 113 122 132 132 125 127 126 124 127 128 119 107 100 94 87 83 83 78 74 67 60 51 44 34 22
185 195 229 36 79 76 99 118 125 130 127 87 106 89 85 113 114 125 138 148 143 140 137 116 128 129 134 135 132 125 128 130 133 140 135 128 119 106 94 91 86 83 72 63 57 44 18 10 13
231 251 184 80 77 87 108 126 148 127 123 132 124 115 115 117 117 132 141 155 148 148 145 139 142 137 137 141 145 142 141 137 141 147 149 146 136 113 101 91 89 84 75 63 32 18 358 352 351
222 254 151 83 96 107 121 148 147 105 122 125 129 123 121 126 143 145 148 151 155 146 144 138 141 136 139 144 152 157 151 147 149 152 154 149 138 113 97 94 73 51 36 357 347 9 352 354 355
276 246 53 95 109 140 141 159 178 136 148 147 140 130 127 149 144 148 150 158 148 142 146 146 151 145 144 147 154 158 158 155 153 154 159 155 167 157 134 196 67 352 357 346 354 20 7 5 17
282 271 160 228 145 114 149 169 127 145 121 134 149 160 158 151 150 147 150 149 155 157 144 149 156 159 160 153 154 160 162 161 155 155 154 167 178 176 181 237 131 355 359 3 4 48 43 48 49
259 249 143 97 247 127 152 155 156 110 139 173 162 151 142 148 154 154 149 159 157 164 164 160 160 158 165 154 160 170 171 168 161 165 164 188 226 172 227 49 1 301 320 358 37 64 69 252 155
234 272 84 31 171 148 161 167 158 170 160 173 158 128 144 157 163 165 167 171 169 167 171 172 164 165 163 172 159 178 178 182 188 189 173 225 208 271 298 245 299 239 278 199 111 94 228 251 6
209 262 88 175 195 161 166 176 168 172 180 179 173 155 158 165 173 175 176 175 175 171 173 171 174 176 175 160 181 187 190 194 198 208 221 218 241 226 260 331 184 155 172 212 186 185 17 9 344
253 238 277 285 166 184 170 162 178 175 118 170 170 165 165 173 178 180 182 180 178 174 179 180 175 182 194 170 196 194 201 206 213 206 209 234 229 203 263 301 71 235 4 6 332 355 350 334 329
240 262 265 258 203 188 176 174 165 180 135 160 163 168 174 178 181 185 187 183 182 180 184 187 183 190 200 193 200 207 216 204 213 206 203 235 238 224 278 325 295 320 277 301 304 319 332 321 310
276 251 266 251 189 179 186 172 174 178 165 168 169 176 180 184 185 185 190 189 191 188 191 192 196 198 206 210 212 216 214 229 223 220 220 219 250 203 255 245 261 263 274 305 304 336 319 319 316
227 238 219 225 172 172 198 178 209 144 165 167 180 183 184 189 188 190 190 193 195 196 197 199 200 197 205 208 208 217 223 222 223 224 222 230 236 254 265 261 260 258 268 263 248 271 266 297 317
218 229 220 162 174 164 196 198 198 160 175 178 183 183 188 192 193 194 195 197 195 200 200 204 205 201 206 213 211 220 223 222 224 224 222 228 228 234 243 244 250 258 262 264 265 295 312 295 313
208 227 217 156 191 160 201 242 160 178 190 183 186 186 189 193 198 196 198 198 198 199 200 204 208 211 209 212 219 222 223 236 243 229 235 222 235 244 247 251 253 236 259 281 286 299 305 309 301
209 224 192 198 189 194 200 223 139 185 202 197 189 192 194 196 201 196 199 196 199 196 200 204 207 212 211 214 219 229 229 222 230 237 224 231 219 225 224 240 261 255 239 250 306 319 315 305 314
225 211 216 215 157 203 215 221 191 191 209 210 198 199 200 204 195 195 197 197 197 200 200 203 206 206 210 207 215 209 223 222 232 246 229 222 223 231 238 237 227 239 269 323 300 281 249 301 4
239 225 220 194 169 218 218 233 228 196 213 211 206 205 208 206 194 196 197 200 200 199 203 204 211 210 209 211 214 239 227 226 202 226 234 238 234 227 226 245 234 215 283 249 286 279 300 270 18
225 230 219 218 183 229 249 234 233 213 207 214 215 211 209 208 202 197 199 200 200 200 202 207 209 212 209 226 207 215 231 255 215 219 216 213 220 221 231 204 250 180 281 248 218 220 279 291 101
226 223 234 223 206 226 205 245 228 217 206 213 212 212 213 209 206 203 203 204 204 204 204 207 210 212 213 208 220 210 224 224 220 223 226 242 221 219 200 191 183 214 266 171 187 207 289 267 296
233 228 220 246 219 241 181 241 256 184 228 217 218 212 211 209 208 205 202 204 208 204 204 207 209 212 215 204 221 209 223 225 231 217 215 232 190 208 199 191 185 191 225 166 244 216 234 218 306
227 250 235 235 235 232 234 212 233 217 231 243 223 214 211 208 206 205 205 203 206 204 204 206 206 211 210 210 205 219 223 229 224 202 210 220 210 197 206 196 194 190 197 203 220 212 217 278 303
217 213 209 218 226 239 211 234 230 249 221 241 261 204 210 207 203 201 203 202 203 204 203 204 205 210 208 207 210 211 216 216 222 225 211 227 217 212 190 206 200 197 204 199 230 203 229 224 262
214 216 224 220 221 220 231 236 234 234 260 259 253 248 194 204 202 202 200 202 202 202 203 205 203 208 206 206 209 211 213 217 218 216 231 211 222 209 203 203 207 221 205 209 195 203 230 213 235
204 221 229 243 229 246 226 211 240 245 245 247 242 218 201 204 205 199 199 202 201 202 201 203 205 206 206 206 206 210 209 218 215 223 203 207 217 212 192 195 208 216 217 214 203 231 207 229 231
227 210 220 231 238 228 234 240 221 219 226 241 210 216 210 203 206 203 200 199 199 200 202 204 206 207 207 207 206 210 208 207 210 207 198 208 195 224 183 198 199 196 206 228 221 227 214 229 242
208 223 219 234 228 242 239 236 226 236 256 269 263 212 219 204 204 206 203 202 196 200 202 204 204 206 206 204 205 208 206 200 201 202 187 203 173 169 192 209 206 210 200 219 232 247 258 232 240
222 213 215 221 224 236 246 245 214 225 230 241 247 262 225 213 206 207 207 200 196 202 201 204 204 205 205 204 202 203 203 199 196 189 182 175 185 156 168 171 243 244 226 223 231 238 240 227 234